Grand Marais, MN

4:19 AM CDT on August 17, 2017 (GMT -0500)
Grand Marais

Weather History for KGNA - September, 2013

Change the Weather History Date:

Wednesday, September 18, 2013

  Actual Average (KCKC) Record (KCKC)
Temperature  
Mean Temperature 56 °F -  
Max Temperature 62 °F 59 °F 77 °F (2000)
Min Temperature 51 °F 41 °F 28 °F (2012)
Degree Days  
Heating Degree Days 9    
Growing Degree Days 6 (Base 50)    
Moisture  
Dew Point 56 °F    
Average Humidity 92    
Maximum Humidity 96    
Minimum Humidity 87    
Precipitation  
Precipitation 0.09 in - - ()
Sea Level Pressure  
Sea Level Pressure 29.87 in    
Wind  
Wind Speed 1 mph (ENE)    
Max Wind Speed 7 mph    
Max Gust Speed -    
Averages and records for this station are not official NWS values.
T = Trace of Precipitation, MM = Missing Value Source: NWS Daily Summary

Daily Weather History Graph

Daily Weather History Graph

Search for Another Location

Airport or City:

Trip Planner

Search our weather history database for the weather conditions in past years. The results will help you decide how hot, cold, wet, or windy it might be!

Date:

Astronomy

Sep. 18, 2013 Rise Set
Actual Time 6:43 AM CDT 7:06 PM CDT
Civil Twilight 6:12 AM CDT 7:37 PM CDT
Nautical Twilight 5:35 AM CDT 8:14 PM CDT
Astronomical Twilight 4:57 AM CDT 8:52 PM CDT
Moon 6:28 PM CDT (9/18) 5:44 AM CDT (9/18)
Length of Visible Light 13h 25m
Length of Day
12h 23m
Waxing Gibbous, 99% of the Moon is Illuminated
Sep 18
Waxing Gibbous
Sep 19
Full
Sep 26
Last Quarter
Oct 4
New
Oct 11
First Quarter

Hourly Weather History & Observations

Time (CDT) Temp. Dew Point Humidity Pressure Visibility Wind Dir Wind Speed Gust Speed Precip Events Conditions
12:56 AM 51.1 °F 48.0 °F 89% 29.99 in - Calm Calm - N/A   Unknown
1:56 AM 54.0 °F 51.1 °F 90% 29.97 in - Calm Calm - N/A   Unknown
2:56 AM 55.0 °F 52.0 °F 89% 29.94 in - Calm Calm - N/A   Unknown
3:56 AM 55.9 °F 52.0 °F 87% 29.92 in - Calm Calm - N/A   Unknown
4:56 AM 55.9 °F 52.0 °F 87% 29.92 in - Calm Calm - N/A   Unknown
5:56 AM 55.9 °F 53.1 °F 90% 29.91 in - Calm Calm - N/A   Unknown
6:56 AM 57.0 °F 54.0 °F 89% 29.91 in - Calm Calm - N/A   Unknown
7:56 AM 57.9 °F 55.0 °F 90% 29.90 in - Calm Calm - N/A   Unknown
8:56 AM 57.9 °F 55.9 °F 93% 29.90 in - Calm Calm - 0.02 in   Unknown
9:56 AM 59.0 °F 55.9 °F 90% 29.90 in - Calm Calm - N/A   Unknown
10:56 AM 59.0 °F 57.0 °F 93% 29.91 in - Calm Calm - N/A   Unknown
11:56 AM 59.0 °F 57.0 °F 93% 29.89 in - Calm Calm - N/A   Unknown
12:56 PM 60.1 °F 57.9 °F 93% 29.86 in - North - - N/A   Unknown
1:56 PM 60.1 °F 57.0 °F 90% 29.83 in - ENE 4.6 mph - N/A   Unknown
2:56 PM 59.0 °F 57.0 °F 93% 29.83 in - East 6.9 mph - N/A   Unknown
3:56 PM 59.0 °F 57.9 °F 96% 29.83 in - ENE 4.6 mph - N/A   Unknown
4:56 PM 60.1 °F 57.9 °F 93% 29.82 in - ENE 4.6 mph - 0.02 in   Unknown
5:56 PM 60.1 °F 59.0 °F 96% 29.82 in - ENE 3.5 mph - N/A   Unknown
6:56 PM 61.0 °F 59.0 °F 93% 29.81 in - ENE 4.6 mph - 0.01 in   Unknown
7:56 PM 61.0 °F 59.0 °F 93% 29.81 in - ENE 4.6 mph - 0.01 in   Unknown
8:56 PM 61.0 °F 59.0 °F 93% 29.83 in - ENE 4.6 mph - 0.01 in   Unknown
9:56 PM 61.0 °F 59.0 °F 93% 29.82 in - NE 4.6 mph - 0.01 in   Unknown
10:56 PM 61.0 °F 59.0 °F 93% 29.81 in - NNE 3.5 mph - N/A   Unknown
11:56 PM 60.1 °F 57.9 °F 93% 29.81 in - NE 4.6 mph - 0.01 in   Unknown